This demonstration page uses our WeatherBlox Daily Observations layout. Learn more.

Left ArrowRight Arrow

39.08367, -84.50855

Hourly Observations for June 23, 2015

Temp ( °F °C ) Dew Point ( °F °C ) Humidity (%) Winds ( mph kmh ) Pressure ( in mb ) Visibility ( mi km ) Precip ( " mm )
12:53 am 00:53 Clear 79 26.1 72 22.2 79 79 SSW 10 17 29.93 1014 10 16.0934 N/A
1:53 am 01:53 Clear 79 26.1 73 22.8 82 82 SSW 15 24 29.93 1013 10 16.0934 N/A
2:53 am 02:53 Clear 79 26.1 72 22.2 79 79 SSW 16 26 29.93 1014 10 16.0934 N/A
3:53 am 03:53 Clear 78 25.6 72 22.2 82 82 SSW 15 24 29.91 1013 10 16.0934 N/A
4:53 am 04:53 Mostly Clear 77 25 72 22.2 85 85 SSW 10 17 29.93 1014 10 16.0934 N/A
5:53 am 05:53 Mostly Clear 77 25 72 22.2 85 85 SSW 12 19 29.91 1013 10 16.0934 N/A
6:50 am 06:50 Mostly Cloudy 77 25 72 22 83 83 SSW 10 17 29.91 1013 10 16.0934 N/A
6:53 am 06:53 Mostly Cloudy 77 25 72 22.2 85 85 SSW 10 17 29.92 1013 10 16.0934 N/A
7:53 am 07:53 Sunny 78 25.6 72 22.2 82 82 SSW 15 24 29.91 1013 10 16.0934 N/A
8:30 am 08:30 Mostly Cloudy 79 26.1 73 22.8 82 82 WSW 14 22 29.91 1013 10 16.0934 N/A
8:53 am 08:53 Cloudy 79 26.1 73 22.8 82 82 WSW 12 19 29.94 1014 10 16.0934 N/A
9:53 am 09:53 Cloudy 81 27.2 73 22.8 77 77 SW 12 19 29.94 1014 10 16.0934 N/A
10:53 am 10:53 Cloudy 81 27.2 74 23.3 79 79 WSW 13 20 29.95 1014 10 16.0934 N/A
11:53 am 11:53 Cloudy 83 28.3 74 23.3 74 74 W 12 19 29.96 1015 10 16.0934 N/A
12:26 pm 12:26 Mostly Cloudy 84 29 75 24 74 74 WSW 12 19 29.94 1014 10 16.0934 N/A
12:53 pm 12:53 Partly Cloudy 87 30.6 74 23.3 65 65 W 12 19 29.96 1015 10 16.0934 N/A
1:53 pm 13:53 Partly Cloudy 87 30.6 75 23.9 67 67 WNW 13 20 29.96 1015 10 16.0934 N/A
2:53 pm 14:53 Mostly Sunny 88 31.1 73 22.8 61 61 W 13 20 29.96 1015 10 16.0934 N/A
3:53 pm 15:53 Partly Cloudy 88 31.1 70 21.1 55 55 WNW 12 19 29.96 1015 10 16.0934 N/A
4:53 pm 16:53 Partly Cloudy 87 30.6 69 20.6 55 55 NNW 15 24 29.96 1015 10 16.0934 N/A
5:53 pm 17:53 Mostly Sunny 86 30 68 20 55 55 NNW 15 24 29.97 1015 10 16.0934 N/A
6:53 pm 18:53 Mostly Sunny 84 28.9 63 17.2 49 49 NNW 12 19 29.97 1015 10 16.0934 N/A
7:53 pm 19:53 Sunny 82 27.8 63 17.2 53 53 N 12 19 30.01 1016 10 16.0934 N/A
8:53 pm 20:53 Sunny 79 26.1 56 13.3 45 45 NW 8 13 30.04 1017 10 16.0934 N/A
9:53 pm 21:53 Clear 75 23.9 55 12.8 50 50 NW 8 13 30.06 1018 10 16.0934 N/A
10:53 pm 22:53 Clear 74 23.3 56 13.3 54 54 NNW 6 9 30.07 1018 10 16.0934 N/A
11:53 pm 23:53 Clear 69 20.6 59 15 70 70 N N/A 30.08 1019 10 16.0934 N/A

Powered by AerisWeather